| time (UTC) | temp C | wind direction | speed KPH | gust KPH | rain 1hr cm | rain 24hr cm | rain mn cm | humidity % | barometer mb |
| 20260505023031 | 15 | 159 | 22.5 | 33.8 | 0.00 | 0.00 | 0.00 | 50 | 1000.0 |
| 20260505022520 | 15 | 159 | 24.1 | 33.8 | 0.00 | 0.00 | 0.00 | 49 | 999.9 |
| 20260505022020 | 15 | 175 | 24.1 | 35.4 | 0.00 | 0.00 | 0.00 | 48 | 999.9 |
| 20260505021519 | 16 | 177 | 25.7 | 30.6 | 0.00 | 0.00 | 0.00 | 47 | 999.8 |
| 20260505021021 | 16 | 160 | 22.5 | 37.0 | 0.00 | 0.00 | 0.00 | 45 | 999.9 |
| 20260505020518 | 17 | 168 | 24.1 | 37.0 | 0.00 | 0.00 | 0.00 | 43 | 999.8 |
| 20260505020019 | 17 | 153 | 16.1 | 25.7 | 0.00 | 0.00 | 0.00 | 40 | 999.6 |
| 20260505015620 | 17 | 145 | 17.7 | 25.7 | 0.00 | 0.00 | 0.00 | 39 | 999.4 |
| 20260505015018 | 17 | 142 | 14.5 | 20.9 | 0.00 | 0.00 | 0.00 | 38 | 999.2 |
| 20260505014531 | 18 | 135 | 14.5 | 20.9 | 0.00 | 0.00 | 0.00 | 38 | 999.2 |
| 20260505014018 | 18 | 130 | 11.3 | 17.7 | 0.00 | 0.00 | 0.00 | 37 | 999.1 |
| 20260505013516 | 18 | 122 | 9.7 | 16.1 | 0.00 | 0.00 | 0.00 | 37 | 999.1 |
| 20260505013017 | 18 | 157 | 8.0 | 12.9 | 0.00 | 0.00 | 0.00 | 37 | 999.0 |
| 20260505012516 | 19 | 184 | 4.8 | 8.0 | 0.00 | 0.00 | 0.00 | 37 | 999.1 |
| 20260505012016 | 19 | 196 | 1.6 | 8.0 | 0.00 | 0.00 | 0.00 | 37 | 999.1 |
| 20260505011515 | 20 | 217 | 3.2 | 8.0 | 0.00 | 0.00 | 0.00 | 36 | 999.0 |
| 20260505011014 | 20 | 218 | 3.2 | 6.4 | 0.00 | 0.00 | 0.00 | 35 | 999.1 |
| 20260505010514 | 20 | 228 | 1.6 | 8.0 | 0.00 | 0.00 | 0.00 | 36 | 999.2 |
| 20260505010013 | 20 | 239 | 1.6 | 9.7 | 0.00 | 0.00 | 0.00 | 37 | 999.2 |
| 20260505005511 | 20 | 245 | 1.6 | 11.3 | 0.00 | 0.00 | 0.00 | 36 | 999.2 |
| 20260505005011 | 19 | 245 | 3.2 | 11.3 | 0.00 | 0.00 | 0.00 | 36 | 999.3 |
| 20260505004515 | 19 | 255 | 1.6 | 12.9 | 0.00 | 0.00 | 0.00 | 38 | 999.4 |
| 20260505004009 | 19 | 249 | 3.2 | 14.5 | 0.00 | 0.00 | 0.00 | 39 | 999.4 |
| 20260505003507 | 19 | 222 | 11.3 | 14.5 | 0.00 | 0.00 | 0.00 | 40 | 999.6 |
| 20260505003007 | 19 | 197 | 1.6 | 9.7 | 0.00 | 0.00 | 0.00 | 39 | 999.6 |
| 20260505002507 | 19 | 228 | 3.2 | 9.7 | 0.00 | 0.00 | 0.00 | 37 | 999.6 |
| 20260505002007 | 19 | 220 | 4.8 | 9.7 | 0.00 | 0.00 | 0.00 | 38 | 999.6 |
| 20260505001507 | 19 | 184 | 0.0 | 8.0 | 0.00 | 0.00 | 0.00 | 36 | 999.6 |
| 20260505001007 | 19 | 184 | 4.8 | 8.0 | 0.00 | 0.00 | 0.00 | 36 | 999.7 |
| 20260505000505 | 19 | 199 | 0.0 | 9.7 | 0.00 | 0.00 | 0.00 | 36 | 999.7 |
| 20260505000010 | 20 | 165 | 6.4 | 12.9 | 0.00 | 0.00 | 0.00 | 35 | 999.7 |
| 20260504235505 | 20 | 325 | 4.8 | 12.9 | 0.00 | 0.00 | 0.00 | 35 | 999.7 |
| 20260504235004 | 20 | 288 | 3.2 | 12.9 | 0.00 | 0.00 | 0.00 | 36 | 999.7 |
| 20260504234504 | 20 | 244 | 3.2 | 12.9 | 0.00 | 0.00 | 0.00 | 36 | 999.7 |
| 20260504234006 | 19 | 264 | 1.6 | 14.5 | 0.00 | 0.00 | 0.00 | 36 | 999.7 |
| 20260504233504 | 19 | 267 | 3.2 | 11.3 | 0.00 | 0.00 | 0.00 | 37 | 999.7 |
| 20260504233003 | 19 | 345 | 0.0 | 4.8 | 0.00 | 0.00 | 0.00 | 37 | 999.7 |
| 20260504232505 | 19 | 345 | 1.6 | 9.7 | 0.00 | 0.00 | 0.00 | 37 | 999.7 |
| 20260504232003 | 18 | 302 | 1.6 | 9.7 | 0.00 | 0.00 | 0.00 | 37 | 999.7 |
| 20260504231502 | 18 | 246 | 1.6 | 6.4 | 0.00 | 0.00 | 0.00 | 37 | 999.8 |
| 20260504231002 | 18 | 317 | 3.2 | 8.0 | 0.00 | 0.00 | 0.00 | 37 | 999.8 |
| 20260504230502 | 18 | 355 | 0.0 | 8.0 | 0.00 | 0.00 | 0.00 | 37 | 999.9 |
| 20260504230101 | 18 | 359 | 3.2 | 8.0 | 0.00 | 0.00 | 0.00 | 37 | 999.9 |
| 20260504225600 | 18 | 359 | 0.0 | 8.0 | 0.00 | 0.00 | 0.00 | 40 | 1000.0 |
| 20260504225059 | 18 | 28 | 0.0 | 6.4 | 0.00 | 0.00 | 0.00 | 41 | 1000.2 |
| 20260504224600 | 18 | 355 | 1.6 | 14.5 | 0.00 | 0.00 | 0.00 | 40 | 1000.2 |
| 20260504224058 | 17 | 28 | 4.8 | 14.5 | 0.00 | 0.00 | 0.00 | 42 | 1000.3 |
| 20260504223601 | 17 | 43 | 4.8 | 16.1 | 0.00 | 0.00 | 0.00 | 42 | 1000.5 |
| 20260504223101 | 17 | 95 | 9.7 | 22.5 | 0.00 | 0.00 | 0.00 | 43 | 1000.6 |
| 20260504222559 | 17 | 100 | 14.5 | 25.7 | 0.00 | 0.00 | 0.00 | 43 | 1000.6 |
| 20260504222058 | 17 | 109 | 16.1 | 22.5 | 0.00 | 0.00 | 0.00 | 42 | 1000.6 |
| 20260504221558 | 17 | 93 | 14.5 | 22.5 | 0.00 | 0.00 | 0.00 | 42 | 1000.6 |
| 20260504221057 | 18 | 84 | 14.5 | 22.5 | 0.00 | 0.00 | 0.00 | 43 | 1000.7 |
| 20260504220557 | 18 | 107 | 12.9 | 19.3 | 0.00 | 0.00 | 0.00 | 42 | 1000.8 |
| 20260504220056 | 17 | 155 | 3.2 | 12.9 | 0.00 | 0.00 | 0.00 | 43 | 1000.9 |
| 20260504215601 | 17 | 128 | 3.2 | 12.9 | 0.00 | 0.00 | 0.00 | 43 | 1001.0 |
| 20260504215056 | 17 | 124 | 6.4 | 16.1 | 0.00 | 0.00 | 0.00 | 44 | 1001.1 |
| 20260504214657 | 17 | 136 | 6.4 | 16.1 | 0.00 | 0.00 | 0.00 | 45 | 1001.2 |
| 20260504214055 | 17 | 130 | 9.7 | 14.5 | 0.00 | 0.00 | 0.00 | 46 | 1001.3 |
| 20260504213556 | 17 | 84 | 3.2 | 9.7 | 0.00 | 0.00 | 0.00 | 44 | 1001.3 |
| 20260504213057 | 17 | 9 | 3.2 | 9.7 | 0.00 | 0.00 | 0.00 | 42 | 1001.4 |
| 20260504212556 | 17 | 59 | 4.8 | 12.9 | 0.00 | 0.00 | 0.00 | 44 | 1001.7 |
| 20260504212058 | 17 | 59 | 4.8 | 19.3 | 0.00 | 0.00 | 0.00 | 44 | 1001.7 |
| 20260504211556 | 17 | 24 | 8.0 | 27.4 | 0.00 | 0.00 | 0.00 | 45 | 1001.8 |
| 20260504211055 | 17 | 57 | 14.5 | 27.4 | 0.00 | 0.00 | 0.00 | 45 | 1001.7 |
| 20260504210554 | 17 | 41 | 17.7 | 35.4 | 0.00 | 0.00 | 0.00 | 45 | 1001.6 |
| 20260504205556 | 18 | 51 | 19.3 | 32.2 | 0.00 | 0.00 | 0.00 | 42 | 1001.4 |
| 20260504205058 | 17 | 53 | 20.9 | 38.6 | 0.00 | 0.00 | 0.00 | 44 | 1001.1 |
| 20260504204610 | 18 | 63 | 27.4 | 38.6 | 0.00 | 0.00 | 0.00 | 41 | 1000.9 |
| 20260504204055 | 18 | 49 | 12.9 | 29.0 | 0.00 | 0.00 | 0.00 | 40 | 1000.9 |
| 20260504203554 | 18 | 14 | 16.1 | 29.0 | 0.00 | 0.00 | 0.00 | 40 | 1000.8 |
| 20260504203124 | 18 | 19 | 19.3 | 32.2 | 0.00 | 0.00 | 0.00 | 40 | 1000.9 |
| 20260504202554 | 18 | 359 | 20.9 | 32.2 | 0.00 | 0.00 | 0.00 | 40 | 1000.8 |
| 20260504202054 | 18 | 332 | 20.9 | 35.4 | 0.00 | 0.00 | 0.00 | 39 | 1000.7 |
| 20260504201553 | 18 | 345 | 22.5 | 35.4 | 0.00 | 0.00 | 0.00 | 39 | 1000.7 |
| 20260504201053 | 19 | 329 | 19.3 | 25.7 | 0.00 | 0.00 | 0.00 | 38 | 1000.7 |
| 20260504200552 | 19 | 318 | 12.9 | 29.0 | 0.00 | 0.00 | 0.00 | 38 | 1000.7 |
| 20260504200052 | 18 | 339 | 17.7 | 29.0 | 0.00 | 0.00 | 0.00 | 37 | 1000.7 |
| 20260504195552 | 19 | 313 | 3.2 | 22.5 | 0.00 | 0.00 | 0.00 | 36 | 1000.6 |
| 20260504195052 | 18 | 201 | 6.4 | 22.5 | 0.00 | 0.00 | 0.00 | 38 | 1000.4 |
| 20260504194552 | 19 | 190 | 4.8 | 16.1 | 0.00 | 0.00 | 0.00 | 38 | 1000.4 |
| 20260504194052 | 19 | 195 | 8.0 | 16.1 | 0.00 | 0.00 | 0.00 | 38 | 1000.4 |
| 20260504193552 | 19 | 228 | 11.3 | 16.1 | 0.00 | 0.00 | 0.00 | 38 | 1000.5 |
| 20260504193052 | 19 | 175 | 8.0 | 16.1 | 0.00 | 0.00 | 0.00 | 38 | 1000.4 |
| 20260504192551 | 20 | 220 | 8.0 | 19.3 | 0.00 | 0.00 | 0.00 | 38 | 1000.4 |
| 20260504192051 | 20 | 244 | 8.0 | 17.7 | 0.00 | 0.00 | 0.00 | 36 | 1000.4 |
| 20260504191554 | 20 | 253 | 8.0 | 19.3 | 0.00 | 0.00 | 0.00 | 35 | 1000.4 |
| 20260504191051 | 20 | 252 | 11.3 | 25.7 | 0.00 | 0.00 | 0.00 | 36 | 1000.3 |
| 20260504190550 | 20 | 249 | 16.1 | 25.7 | 0.00 | 0.00 | 0.00 | 35 | 1000.3 |
| 20260504190053 | 20 | 227 | 11.3 | 25.7 | 0.00 | 0.00 | 0.00 | 35 | 1000.3 |
| 20260504185550 | 20 | 258 | 14.5 | 25.7 | 0.00 | 0.00 | 0.00 | 36 | 1000.4 |
| 20260504185049 | 20 | 265 | 16.1 | 32.2 | 0.00 | 0.00 | 0.00 | 34 | 1000.4 |
| 20260504184549 | 20 | 246 | 20.9 | 32.2 | 0.00 | 0.00 | 0.00 | 34 | 1000.2 |
| 20260504184048 | 21 | 311 | 0.0 | 9.7 | 0.00 | 0.00 | 0.00 | 32 | 1000.3 |
| 20260504183548 | 21 | 251 | 1.6 | 12.9 | 0.00 | 0.00 | 0.00 | 32 | 1000.5 |
| 20260504183046 | 21 | 253 | 4.8 | 19.3 | 0.00 | 0.00 | 0.00 | 32 | 1000.7 |
| 20260504182546 | 21 | 209 | 6.4 | 19.3 | 0.00 | 0.00 | 0.00 | 32 | 1000.7 |
| 20260504182046 | 22 | 207 | 9.7 | 16.1 | 0.00 | 0.00 | 0.00 | 33 | 1000.7 |
| 20260504181544 | 21 | 235 | 4.8 | 14.5 | 0.00 | 0.00 | 0.00 | 33 | 1000.8 |
| 20260504181043 | 21 | 233 | 4.8 | 22.5 | 0.00 | 0.00 | 0.00 | 32 | 1000.8 |
| 20260504180541 | 21 | 134 | 12.9 | 22.5 | 0.00 | 0.00 | 0.00 | 33 | 1001.1 |
| 20260504180041 | 21 | 157 | 3.2 | 14.5 | 0.00 | 0.00 | 0.00 | 33 | 1001.1 |
| 20260504175540 | 21 | 88 | 6.4 | 17.7 | 0.00 | 0.00 | 0.00 | 33 | 1001.1 |
| 20260504175040 | 21 | 262 | 3.2 | 16.1 | 0.00 | 0.00 | 0.00 | 33 | 1001.1 |
| 20260504174540 | 21 | 197 | 8.0 | 16.1 | 0.00 | 0.00 | 0.00 | 33 | 1001.3 |
| 20260504174039 | 21 | 107 | 12.9 | 19.3 | 0.00 | 0.00 | 0.00 | 34 | 1001.3 |
| 20260504173537 | 21 | 43 | 6.4 | 19.3 | 0.00 | 0.00 | 0.00 | 34 | 1001.5 |
| 20260504173040 | 20 | 151 | 11.3 | 20.9 | 0.00 | 0.00 | 0.00 | 35 | 1001.5 |
| 20260504172536 | 20 | 125 | 4.8 | 20.9 | 0.00 | 0.00 | 0.00 | 34 | 1001.6 |
| 20260504172036 | 20 | 90 | 6.4 | 19.3 | 0.00 | 0.00 | 0.00 | 35 | 1001.6 |
| 20260504171537 | 20 | 55 | 6.4 | 20.9 | 0.00 | 0.00 | 0.00 | 35 | 1001.6 |
| 20260504171034 | 20 | 165 | 6.4 | 19.3 | 0.00 | 0.00 | 0.00 | 34 | 1001.8 |
| 20260504170532 | 20 | 140 | 9.7 | 19.3 | 0.00 | 0.00 | 0.00 | 36 | 1001.7 |
| 20260504151005 | 15 | 179 | 11.3 | 16.1 | 0.00 | 0.00 | 0.00 | 49 | 1003.0 |
| 20260504150505 | 15 | 177 | 11.3 | 17.7 | 0.00 | 0.00 | 0.00 | 49 | 1003.1 |
| 20260504141049 | 11 | 180 | 8.0 | 11.3 | 0.00 | 0.00 | 0.00 | 49 | 1003.8 |
| 20260504140549 | 11 | 175 | 6.4 | 9.7 | 0.00 | 0.00 | 0.00 | 47 | 1003.8 |
| 20260504130543 | 9 | 201 | 3.2 | 6.4 | 0.00 | 0.00 | 0.00 | 46 | 1003.8 |
| 20260504110534 | 10 | 165 | 3.2 | 8.0 | 0.00 | 0.00 | 0.00 | 53 | 1004.3 |
| 20260504100526 | 9 | 204 | 4.8 | 9.7 | 0.00 | 0.00 | 0.00 | 53 | 1004.4 |
| 20260504081613 | 5 | 248 | 1.6 | 9.7 | 0.00 | 0.00 | 0.00 | 54 | 1004.5 |
| 20260504081012 | 6 | 248 | 6.4 | 9.7 | 0.00 | 0.00 | 0.00 | 54 | 1004.5 |
| 20260504080512 | 6 | 249 | 3.2 | 9.7 | 0.00 | 0.00 | 0.00 | 54 | 1004.7 |
| 20260504050535 | 7 | 213 | 3.2 | 6.4 | 0.00 | 0.00 | 0.00 | 53 | 1004.3 |
| 20260504045531 | 7 | 176 | 4.8 | 6.4 | 0.00 | 0.00 | 0.00 | 53 | 1004.3 |
| 20260504045030 | 7 | 318 | 0.0 | 1.6 | 0.00 | 0.00 | 0.00 | 53 | 1004.3 |
| 20260504044529 | 7 | 318 | 0.0 | 3.2 | 0.00 | 0.00 | 0.00 | 54 | 1004.3 |
| 20260504044027 | 7 | 318 | 0.0 | 4.8 | 0.00 | 0.00 | 0.00 | 54 | 1004.3 |
| 20260504043527 | 8 | 318 | 0.0 | 4.8 | 0.00 | 0.00 | 0.00 | 54 | 1004.3 |
| 20260504043024 | 8 | 318 | 0.0 | 4.8 | 0.00 | 0.00 | 0.00 | 54 | 1004.2 |
| 20260504042523 | 8 | 318 | 1.6 | 4.8 | 0.00 | 0.00 | 0.00 | 54 | 1004.2 |
| 20260504042021 | 8 | 318 | 0.0 | 3.2 | 0.00 | 0.00 | 0.00 | 54 | 1004.3 |
| 20260504041535 | 8 | 318 | 0.0 | 3.2 | 0.00 | 0.00 | 0.00 | 54 | 1004.3 |
| 20260504041019 | 7 | 318 | 0.0 | 4.8 | 0.00 | 0.00 | 0.00 | 52 | 1004.3 |
| 20260504040517 | 7 | 318 | 0.0 | 4.8 | 0.00 | 0.00 | 0.00 | 51 | 1004.4 |
| 20260504040020 | 7 | 70 | 3.2 | 4.8 | 0.00 | 0.00 | 0.00 | 50 | 1004.3 |
| 20260504035514 | 8 | 160 | 0.0 | 3.2 | 0.00 | 0.00 | 0.00 | 50 | 1004.2 |
| 20260504035013 | 8 | 160 | 1.6 | 6.4 | 0.00 | 0.00 | 0.00 | 49 | 1004.2 |
| 20260504034511 | 9 | 160 | 3.2 | 8.0 | 0.00 | 0.00 | 0.00 | 48 | 1004.2 |
| 20260504034009 | 10 | 163 | 3.2 | 8.0 | 0.00 | 0.00 | 0.00 | 46 | 1004.2 |
| 20260504033508 | 12 | 118 | 3.2 | 6.4 | 0.00 | 0.00 | 0.00 | 41 | 1004.2 |
| 20260504033006 | 13 | 91 | 1.6 | 6.4 | 0.00 | 0.00 | 0.00 | 41 | 1004.2 |
| 20260504032505 | 13 | 305 | 3.2 | 6.4 | 0.00 | 0.00 | 0.00 | 37 | 1004.1 |
| 20260504032003 | 13 | 305 | 1.6 | 3.2 | 0.00 | 0.00 | 0.00 | 42 | 1004.1 |
| 20260504031503 | 13 | 51 | 0.0 | 3.2 | 0.00 | 0.00 | 0.00 | 41 | 1004.1 |
| 20260504031004 | 13 | 51 | 0.0 | 1.6 | 0.00 | 0.00 | 0.00 | 42 | 1004.0 |
| 20260504030501 | 13 | 51 | 0.0 | 3.2 | 0.00 | 0.00 | 0.00 | 40 | 1003.9 |
| 20260504030100 | 13 | 51 | 0.0 | 4.8 | 0.00 | 0.00 | 0.00 | 39 | 1004.0 |
| 20260504025559 | 13 | 51 | 1.6 | 4.8 | 0.00 | 0.00 | 0.00 | 40 | 1004.0 |
| 20260504025058 | 13 | 51 | 1.6 | 4.8 | 0.00 | 0.00 | 0.00 | 39 | 1003.9 |
| 20260504024556 | 13 | 301 | 0.0 | 4.8 | 0.00 | 0.00 | 0.00 | 38 | 1003.8 |
| 20260504024056 | 14 | 293 | 1.6 | 6.4 | 0.00 | 0.00 | 0.00 | 39 | 1003.8 |
| 20260504023553 | 14 | 305 | 3.2 | 6.4 | 0.00 | 0.00 | 0.00 | 37 | 1003.8 |